WJA812 CYQT-CYYZ

Flight info

Callsign WJA812
Flight time N/A
Altitude 31000
Route YQT DCT OTNIK BOXUM7
Aircraft B738/M-SDE2E3FGHIRWXY/LB1

Departure

Time 2026-04-20 14:04
Airport Thunder Bay International Airport (CYQT)

Arrival

Time N/A
Airport Toronto Pearson International Airport (CYYZ)
Time Latitude Longitude Altitude Speed Heading
2026-04-20 13:25 48.37242 -89.31285 623 ft 0 kts 139°
2026-04-20 13:52 48.37246 -89.31290 623 ft 2 kts 139°
2026-04-20 13:52 48.37257 -89.31305 624 ft 2 kts 139°
2026-04-20 13:52 48.37269 -89.31320 624 ft 2 kts 139°
2026-04-20 13:52 48.37274 -89.31327 624 ft 0 kts 139°
2026-04-20 13:54 48.37272 -89.31321 624 ft 1 kts 108°
2026-04-20 13:54 48.37281 -89.31300 624 ft 2 kts 34°
2026-04-20 13:55 48.37306 -89.31289 624 ft 5 kts 20°
2026-04-20 13:55 48.37353 -89.31248 623 ft 9 kts 35°
2026-04-20 13:55 48.37413 -89.31200 622 ft 9 kts 14°
2026-04-20 13:55 48.37477 -89.31195 622 ft 8 kts 355°
2026-04-20 13:56 48.37527 -89.31158 622 ft 8 kts 58°
2026-04-20 13:56 48.37548 -89.31073 621 ft 8 kts 72°
2026-04-20 13:56 48.37566 -89.30993 621 ft 7 kts 70°
2026-04-20 13:56 48.37585 -89.30917 620 ft 8 kts 69°
2026-04-20 13:57 48.37610 -89.30820 620 ft 11 kts 71°
2026-04-20 13:57 48.37631 -89.30705 620 ft 11 kts 77°
2026-04-20 13:57 48.37648 -89.30597 619 ft 9 kts 73°
2026-04-20 13:57 48.37658 -89.30555 619 ft 2 kts 55°
2026-04-20 13:58 48.37674 -89.30553 619 ft 1 kts 314°
2026-04-20 13:58 48.37673 -89.30579 619 ft 2 kts 259°
2026-04-20 13:58 48.37666 -89.30606 619 ft 2 kts 250°
2026-04-20 13:58 48.37664 -89.30615 619 ft 0 kts 250°
2026-04-20 14:03 48.37662 -89.30622 619 ft 4 kts 250°
2026-04-20 14:03 48.37604 -89.30868 620 ft 55 kts 251°
2026-04-20 14:04 48.37407 -89.31690 624 ft 111 kts 251°
2026-04-20 14:04 48.37094 -89.33026 646 ft 156 kts 250°
2026-04-20 14:04 48.36747 -89.34521 1171 ft 156 kts 251°
2026-04-20 14:04 48.36369 -89.36141 1596 ft 168 kts 249°
2026-04-20 14:05 48.35945 -89.37811 2060 ft 179 kts 249°
2026-04-20 14:05 48.35501 -89.39603 2395 ft 189 kts 249°
2026-04-20 14:05 48.35042 -89.41509 2665 ft 203 kts 250°
2026-04-20 14:05 48.34551 -89.43568 2962 ft 216 kts 250°
2026-04-20 14:06 48.34023 -89.45772 3308 ft 228 kts 248°
2026-04-20 14:06 48.33088 -89.47728 3590 ft 240 kts 216°
2026-04-20 14:06 48.31517 -89.48485 4048 ft 250 kts 182°
2026-04-20 14:06 48.29812 -89.47752 4569 ft 260 kts 155°
2026-04-20 14:07 48.28269 -89.46289 5062 ft 266 kts 147°
2026-04-20 14:07 48.26805 -89.44579 5544 ft 272 kts 142°
2026-04-20 14:07 48.25441 -89.42591 6054 ft 277 kts 133°
2026-04-20 14:07 48.24343 -89.40186 6571 ft 284 kts 117°
2026-04-20 14:08 48.23580 -89.37456 7069 ft 288 kts 113°
2026-04-20 14:08 48.22807 -89.34668 7612 ft 291 kts 113°
2026-04-20 14:08 48.22008 -89.31863 8165 ft 295 kts 113°
2026-04-20 14:08 48.21199 -89.29044 8685 ft 299 kts 113°
2026-04-20 14:09 48.20377 -89.26181 9248 ft 302 kts 113°
2026-04-20 14:09 48.19538 -89.23254 9782 ft 306 kts 112°
2026-04-20 14:09 48.18696 -89.20312 10203 ft 314 kts 112°
2026-04-20 14:09 48.17828 -89.17274 10453 ft 329 kts 111°
2026-04-20 14:10 48.16898 -89.14019 10699 ft 344 kts 111°
2026-04-20 14:10 48.15949 -89.10711 10914 ft 359 kts 112°
2026-04-20 14:10 48.14935 -89.07180 11154 ft 374 kts 112°
2026-04-20 14:10 48.13893 -89.03564 11480 ft 384 kts 112°
2026-04-20 14:11 48.12834 -88.99896 12105 ft 386 kts 111°
2026-04-20 14:11 48.11766 -88.96202 12678 ft 390 kts 112°
2026-04-20 14:11 48.10687 -88.92477 13237 ft 395 kts 111°
2026-04-20 14:11 48.09600 -88.88731 13814 ft 398 kts 111°
2026-04-20 14:12 48.08496 -88.84925 14388 ft 402 kts 111°
2026-04-20 14:12 48.07379 -88.81080 14951 ft 407 kts 111°
2026-04-20 14:12 48.06250 -88.77199 15535 ft 411 kts 111°
2026-04-20 14:12 48.05111 -88.73289 16077 ft 415 kts 111°
2026-04-20 14:13 48.03958 -88.69334 16605 ft 420 kts 111°
2026-04-20 14:13 48.02792 -88.65344 17147 ft 423 kts 111°
2026-04-20 14:13 48.01608 -88.61304 17645 ft 427 kts 111°
2026-04-20 14:13 48.00409 -88.57217 18166 ft 431 kts 111°
2026-04-20 14:14 47.99213 -88.53148 18642 ft 436 kts 110°
2026-04-20 14:14 47.97987 -88.48983 19159 ft 439 kts 110°
2026-04-20 14:14 47.96756 -88.44813 19690 ft 442 kts 110°
2026-04-20 14:14 47.95530 -88.40663 20157 ft 446 kts 110°
2026-04-20 14:15 47.94267 -88.36395 20620 ft 450 kts 110°
2026-04-20 14:15 47.93010 -88.32154 21120 ft 453 kts 111°
2026-04-20 14:15 47.91736 -88.27864 21621 ft 455 kts 110°
2026-04-20 14:15 47.90446 -88.23530 22072 ft 459 kts 110°
2026-04-20 14:16 47.89151 -88.19185 22492 ft 463 kts 110°
2026-04-20 14:16 47.87836 -88.14777 22923 ft 466 kts 110°